Regional Weather Roundup
Issued by NWS New Orleans/Baton Rouge, LA

Home | Current Version | Previous Version | Graphics & Text | Print | Product List | Glossary On
Versions: 1 2 3 4 5 6 7 8 9 10 11 12 13 14 15 16 17 18 19 20 21 22 23 24 25 26 27 28 29 30 31 32 33 34 35 36 37 38 39 40 41 42 43 44 45 46 47 48 49 50
261
ASUS44 KLIX 152301
RWRLIX
NEW ORLEANS REGIONAL WEATHER ROUNDUP
NATIONAL WEATHER SERVICE NEW ORLEANS LA
600 PM CDT TUE APR 15 2014

NOTE: "FAIR" INDICATES FEW OR NO CLOUDS BELOW 12,000 FEET WITH NO
      SIGNIFICANT WEATHER AND/OR OBSTRUCTIONS TO VISIBILITY.
      SKY/WX - SKY CONDITION AND SIGNIFICANT WEATHER.
      TMP - AIR TEMPERATURE.     DP    - DEWPOINT TEMPERATURE.
      RH  - RELATIVE HUMIDITY.   PRES  - PRESSURE.
      HI  - HEAT INDEX.          WCI   - WIND CHILL INDEX.

*  THESE STATIONS ARE NOT NWS OR FAA STATIONS AND ARE NOT UNDER
   NWS QUALITY CONTROL.

LAZ038-040-048-061>063-065>067-069-160000-
SOUTHEAST LOUISIANA

CITY           SKY/WX    TMP DP  RH WIND       PRES   REMARKS
N.O. AUDUBON     N/A     61  32  32 MISG        N/A
N.O. INTL ARPT PTSUNNY   59  29  31 N16G23    30.11R
N.O. LAKEFRONT MOSUNNY   60  35  39 N17G28    30.11R
N.O. DOWNTOWN*   N/A     61  28  29 NW10G18   30.11R
SLIDELL        MOSUNNY   59  28  30 NW12G18   30.10R
BATON ROUGE    SUNNY     60  25  26 VRB7      30.14R
BOOTHVILLE     PTSUNNY   59  37  44 N12       30.09R
BELLE CHASSE   PTSUNNY   60  29  30 N7G17     30.09R
BOGALUSA*        N/A     59  29  31 N14       30.12R
GALLIANO*      NOT AVBL
NEW ROADS*     NOT AVBL
GONZALES*        N/A     59  30  33 NW10G20   30.12R
HAMMOND*       NOT AVBL
HOUMA*         NOT AVBL
PORT FOURCHON* CLEAR     61  34  36 N13G20    30.12R

$$

MSZ070-080>082-160000-
SOUTHERN MISSISSIPPI

CITY           SKY/WX    TMP DP  RH WIND       PRES   REMARKS
MCCOMB         SUNNY     55  27  34 N15       30.13R
GULFPORT       MOSUNNY   62  27  26 N15       30.07R
BILOXI         MOSUNNY   59  30  33 N15G22    30.07R
PASCAGOULA     MOSUNNY   59  33  37 N16       30.06R
STENNIS ARPT*  SUNNY     61  27  27 N9        30.09R

$$

COASTAL OBSERVATIONS
LAKE AND NEARSHORE STATIONS

STATION/POSITION TIME  TEMP    WIND        PRES    WAVE
                       AIR SEA DIR/SP/G            HT/PER
                 (UTC) (F)     (DEG/KT/KT) (MB)    (FT/S)
PASCAGOULA       2200   59     350/ 12/ 17 1016.9
WAVELAND YACHT   2200   59 69   10/ 16/ 19 1017.4
GRAND ISLE       2200   60 68   10/ 15/ 21 1019.1
SOUTHWEST PASS   2200   60 59   10/ 16/ 18 1018.6
NEW CANAL        2200   59 66  360/ 16/ 20 1019.6
SHELL BEACH      2200   59 65  360/ 20/ 24 1018.3

OFFSHORE STATIONS

STATION/POSITION TIME  TEMP    WIND        PRES    WAVE
                       AIR SEA DIR/SP/G            HT/PER
                 (UTC) (F)     (DEG/KT/KT) (MB)    (FT/S)
64 S DAUPHIN ISL 2219   56 68  360/ 19/ 25 1017.9

$$




USA.gov is the U.S. government's official web portal to all federal, state and local government web resources and services.